カタログに戻る

STARLINK-37378

運用中通信VLEO
NORAD 69255·PAYLOAD·🇺🇸 United States

打ち上げ May 30, 2026 から Cape Canaveral Space Force Station

Loading…

次のパス (今後24時間)

TLE

最新Source: CelesTrak SupGP

元期: Sep 15, 2026, 03:34 UTC

1 69255C 26117T   26258.14909722 -.00047702  00000+0 -14096-2 0  2582
2 69255  53.1581 178.4473 0001287  84.1106 132.8457 15.34408592    16

AllMySatでSTARLINK-37378をリアルタイム追跡

Download on the App Store